Tracking 22283 objects as of 28-Jan-2021
HD Live streaming from Space Station
objects crossing your sky now

COSMOS 1581

Track COSMOS 1581 now!
COSMOS 1581 is classified as:


NORAD ID: 15095
Int'l Code: 1984-071A
Perigee: 2,859.8 km
Apogee: 37,672.9 km
Inclination: 66.0 °
Period: 721.1 minutes
Semi major axis: 26637 km
RCS: 9.1322 m2 (large)
Launch date: July 3, 1984
Source: Commonwealth of Independent States (former USSR) (CIS)
Launch site: PLESETSK MISSILE AND SPACE COMPLEX (PKMTR)
aabbcc
Your satellite tracking list
Your tracking list is empty




NASA's NSSDC Master Catalog

Two Line Element Set (TLE):
1 15095U 84071A   21027.55714715  .00001062  00000-0  00000-0 0  9996
2 15095  65.9689 200.0584 6534627  38.1759 353.5031  1.99694708241190
Source of the keplerian elements: AFSPC